Wind_Speed
22 23 24 24 24 24 23 23 23 23 21 20 20 19 19 19 18 18 19 20 22 23 23 24 25 26 27 27 28 29 29 29 30 31 32 32 33 35 36 38 39 41 42 44
23 23 23 23 23 22 22 21 21 21 19 18 18 18 17 18 18 19 20 22 23 24 25 26 27 28 29 29 30 31 31 32 32 32 33 33 34 35 36 38 39 40 42 43
23 23 22 22 22 21 21 20 19 19 18 17 17 16 16 17 18 20 21 23 24 25 25 27 28 30 31 31 32 33 33 33 34 34 34 34 35 35 36 37 38 40 41 43
23 23 22 21 21 20 19 18 17 17 18 17 16 15 15 17 19 21 23 24 26 26 27 29 30 32 32 33 33 33 33 33 33 33 33 34 34 35 36 37 38 39 40 41
23 23 22 21 20 19 18 18 17 17 17 17 17 17 16 17 19 22 24 26 27 29 30 31 32 33 33 33 32 32 32 31 31 31 31 32 32 33 34 35 36 38 40 42
24 23 22 21 20 19 18 18 17 17 18 17 17 18 18 19 21 23 25 27 29 30 31 32 32 32 32 32 32 30 29 29 29 29 29 30 31 33 34 36 38 40 42 44
24 22 21 21 20 20 19 19 19 19 18 17 18 20 20 21 24 25 27 29 30 31 32 32 32 32 32 31 30 28 28 28 29 29 31 32 33 35 37 39 41 43 45 48
23 22 22 21 21 21 21 20 21 20 19 18 20 21 23 25 27 28 29 30 31 31 31 32 32 32 31 30 29 29 29 29 30 31 33 35 37 39 41 43 45 48 50 52
23 23 23 22 22 22 22 22 22 23 22 21 22 23 25 27 29 30 31 31 31 31 31 32 32 31 31 30 30 30 31 32 33 35 37 39 41 44 46 49 51 54 56 58
24 24 23 24 24 24 24 23 24 24 26 25 24 25 27 29 30 31 31 31 31 31 31 32 32 32 31 32 32 33 34 36 38 40 42 44 47 49 52 54 57 60 62 65
26 25 24 25 25 25 25 25 26 27 28 29 28 26 28 31 32 32 32 32 32 32 32 33 33 33 33 34 35 36 38 40 42 45 47 49 52 55 57 60 63 66 68 71
27 27 26 26 27 27 27 27 28 29 30 31 31 30 29 32 33 34 34 33 33 34 34 34 34 35 35 37 38 40 42 44 47 50 52 55 58 60 63 66 69 72 74 76
29 29 28 28 28 29 29 29 30 32 32 32 32 31 32 33 35 36 35 34 35 35 36 36 36 37 38 40 41 44 46 49 52 55 58 61 63 66 69 72 74 77 79 81
31 31 30 29 30 31 31 31 31 33 34 35 33 32 32 35 37 37 36 36 37 37 37 37 38 40 42 43 46 48 51 54 57 60 63 66 69 72 74 77 79 81 83 85
33 33 32 32 34 34 34 32 33 35 36 38 35 34 33 36 38 37 37 38 38 38 38 39 41 43 45 47 50 53 56 59 62 65 68 71 74 76 79 81 83 85 87 89
35 35 34 34 35 37 36 33 35 36 38 39 39 37 36 36 37 38 38 39 39 39 41 42 44 46 49 52 54 57 60 64 67 70 72 75 78 80 82 84 86 88 90 92
36 36 37 36 36 38 37 34 36 38 39 40 40 39 37 36 37 38 38 39 41 42 44 45 47 50 53 56 58 61 65 68 71 74 77 79 81 83 85 87 89 91 92 92
37 37 39 40 39 40 38 37 37 39 39 39 39 39 38 37 38 39 40 41 43 45 46 48 51 53 56 59 63 66 69 72 75 78 80 82 84 86 88 89 91 91 91 89
39 39 41 43 43 43 39 39 39 40 39 38 39 39 39 39 40 41 42 43 45 47 49 51 54 57 60 63 66 69 72 75 78 80 82 84 86 88 89 90 90 89 87 83
40 41 43 44 45 45 40 39 40 40 40 37 38 39 40 40 41 42 43 45 47 50 52 54 57 60 64 67 70 73 76 78 80 82 84 86 88 90 90 89 87 84 80 75
41 42 43 44 46 45 42 41 41 41 40 39 39 39 39 41 42 43 45 48 50 52 55 58 61 64 67 71 73 76 78 80 82 84 86 87 89 89 88 86 82 77 72 68
42 43 44 44 45 45 44 43 43 42 42 41 40 40 41 42 44 46 48 50 53 55 58 61 64 67 70 73 76 78 80 82 83 85 87 87 87 86 83 79 74 69 65 61
44 44 45 44 45 45 45 45 44 43 42 41 42 42 43 44 46 48 50 53 55 58 61 64 67 70 73 76 78 80 82 83 85 86 87 86 85 81 77 72 67 63 60 57
45 45 45 45 44 45 45 45 44 43 42 42 43 44 45 47 49 50 53 56 58 62 65 68 70 73 75 77 79 82 83 85 86 86 86 84 81 75 70 65 62 59 56 54
46 45 44 44 44 45 44 44 43 43 43 44 45 46 48 49 51 53 56 59 62 65 68 70 73 75 77 79 81 82 84 86 86 85 83 79 74 69 63 59 56 55 53 52
43 44 44 44 43 43 43 43 43 43 44 45 47 48 50 52 54 57 60 63 66 68 71 73 75 77 78 80 82 83 85 86 86 83 78 73 68 63 58 55 51 50 50 49
Wind_Direction
263 266 267 269 270 269 269 268 268 271 273 273 275 278 281 283 283 282 282 283 284 285 286 287 288 289 289 289 288 288 288 288 287 287 287 287 286 286 286 286 286 286 285 285
262 265 267 268 268 268 268 267 268 269 271 271 272 274 275 276 278 278 279 280 282 284 285 286 288 288 289 289 289 289 289 289 288 288 288 288 287 287 287 287 288 288 288 287
262 265 267 267 267 266 266 265 266 269 272 271 270 270 272 273 275 276 278 280 282 285 287 288 288 289 289 289 289 290 291 290 290 290 289 289 289 289 290 290 290 290 289 289
261 265 266 266 265 264 263 263 263 266 270 271 272 271 271 274 276 277 279 282 286 288 289 289 289 288 289 289 290 291 292 292 292 292 292 292 292 292 292 292 292 292 292 291
260 263 264 263 262 261 261 262 262 264 267 271 274 276 275 277 279 281 283 286 287 288 288 288 288 288 288 289 290 292 293 294 294 295 295 295 295 295 295 295 296 296 296 295
259 260 260 259 259 260 261 262 263 264 268 271 275 279 281 283 284 286 287 287 287 288 288 288 288 288 288 290 291 293 294 295 296 297 297 297 298 298 298 298 298 298 297 297
255 255 255 256 258 259 261 263 265 265 267 272 277 281 286 288 288 289 289 289 289 289 289 289 288 288 289 291 292 293 294 296 297 298 298 299 299 299 299 299 299 298 298 297
252 251 253 256 258 260 261 264 267 270 271 274 278 284 290 291 291 291 291 290 290 290 290 288 288 289 290 291 293 294 296 297 298 299 299 299 299 299 299 299 299 298 297 296
249 250 254 256 259 261 263 265 268 272 273 276 281 287 290 292 292 292 292 291 291 290 290 288 287 288 290 292 293 295 297 298 298 299 300 300 300 300 299 299 298 298 297 297
250 252 254 258 261 262 264 267 270 273 277 280 283 289 292 293 292 291 291 291 291 291 289 288 287 288 290 292 295 296 297 298 299 299 299 300 300 300 300 299 299 299 298 298
252 254 256 260 262 264 266 269 270 273 278 283 286 291 295 293 293 291 291 291 291 291 289 287 287 289 292 293 295 297 298 298 299 299 300 301 301 301 301 301 300 300 299 298
255 257 259 262 264 267 268 270 272 275 279 284 288 295 295 293 291 290 291 291 290 289 288 287 288 291 293 295 296 297 298 298 299 300 301 301 302 302 301 301 301 300 300 299
257 260 262 264 265 267 268 270 273 276 280 284 290 296 295 291 289 289 290 289 288 287 287 289 290 293 295 296 297 298 298 299 300 301 302 303 303 302 302 302 302 301 301 300
257 260 263 266 267 268 269 271 274 278 282 284 288 290 290 288 287 288 288 287 286 287 288 290 292 294 295 296 297 298 299 301 302 303 303 303 304 304 303 303 303 302 302 302
259 262 265 267 269 270 271 273 275 278 282 285 288 289 289 286 287 287 286 285 286 287 288 291 293 294 296 297 298 299 301 302 303 304 304 304 305 305 304 304 304 304 304 303
261 265 267 268 269 270 271 274 277 280 284 286 288 290 287 285 285 285 285 285 286 288 290 292 294 295 296 297 299 300 302 303 304 304 305 305 305 305 305 305 305 305 305 305
263 267 268 269 269 271 272 274 277 280 283 285 287 288 286 284 283 283 284 285 286 288 290 292 294 295 297 298 300 301 302 304 305 305 306 306 306 307 307 307 307 307 307 306
265 268 270 271 270 271 275 277 279 280 282 284 285 285 284 283 282 282 283 285 287 289 291 293 295 297 298 300 301 303 304 305 306 307 307 308 308 308 308 309 309 308 308 308
265 268 270 272 273 273 275 279 281 281 282 283 284 282 282 282 282 282 284 285 288 290 292 294 296 298 300 301 303 304 306 307 307 308 309 309 309 310 310 310 310 309 309 309
265 267 270 272 274 276 278 278 280 281 282 282 281 281 281 282 282 284 286 288 290 292 294 296 298 300 302 303 305 306 307 308 309 309 310 310 311 311 311 311 311 310 310 309
264 267 269 272 274 277 281 281 281 282 283 282 282 282 282 283 284 285 287 289 292 294 296 298 300 302 304 305 306 307 308 309 310 311 311 312 312 312 312 312 311 310 310 310
266 267 268 270 274 278 279 281 282 282 283 283 283 283 283 284 285 287 289 292 294 296 298 300 302 304 306 307 308 309 309 310 311 312 312 312 313 313 312 312 311 310 310 310
266 268 270 271 274 276 278 279 281 282 282 283 283 283 284 285 287 289 291 293 296 298 300 302 304 305 307 308 309 310 310 311 312 312 313 313 313 313 312 311 311 311 310 311
267 269 271 272 273 275 277 278 280 281 282 282 283 284 285 287 289 291 293 295 297 300 302 304 305 307 308 309 310 311 311 312 313 313 313 313 313 312 312 311 311 311 311 311
268 270 271 272 273 274 276 278 280 281 282 282 283 285 287 289 291 293 295 298 300 302 304 305 307 308 309 310 311 312 312 313 313 314 314 313 313 312 312 311 312 312 312 312
268 269 270 272 273 274 276 278 279 280 281 283 285 287 289 291 293 296 298 300 302 304 305 307 308 309 309 310 311 312 312 313 314 314 314 313 312 312 312 311 312 312 312 313
Height
5832 5834 5833 5833 5833 5833 5833 5832 5832 5832 5832 5832 5831 5831 5830 5829 5829 5828 5827 5825 5824 5822 5821 5819 5818 5816 5814 5812 5811 5809 5807 5806 5804 5802 5800 5798 5796 5793 5791 5789 5787 5785 5782 5780
5829 5829 5828 5828 5828 5828 5828 5828 5827 5827 5827 5827 5827 5827 5827 5826 5825 5824 5823 5821 5820 5818 5817 5815 5813 5811 5809 5807 5805 5803 5801 5799 5797 5795 5793 5791 5788 5786 5783 5781 5779 5776 5774 5771
5823 5824 5824 5824 5824 5824 5823 5824 5823 5823 5823 5823 5824 5824 5824 5823 5821 5820 5818 5817 5815 5814 5812 5810 5808 5806 5804 5801 5799 5797 5794 5792 5790 5787 5785 5783 5781 5778 5776 5773 5771 5768 5765 5763
5819 5819 5819 5819 5819 5819 5819 5819 5819 5819 5819 5820 5820 5821 5820 5819 5817 5816 5814 5812 5811 5809 5807 5805 5803 5800 5798 5795 5793 5790 5788 5785 5783 5780 5778 5775 5773 5771 5768 5766 5763 5759 5756 5753
5814 5814 5815 5815 5815 5815 5815 5815 5816 5816 5815 5816 5816 5816 5817 5815 5813 5811 5810 5808 5805 5803 5801 5799 5796 5794 5792 5789 5786 5784 5781 5778 5776 5773 5771 5768 5766 5763 5760 5757 5755 5751 5748 5744
5809 5810 5810 5811 5811 5811 5811 5812 5812 5812 5812 5813 5812 5811 5812 5810 5808 5806 5804 5802 5799 5797 5795 5792 5790 5787 5785 5782 5780 5777 5775 5772 5769 5767 5764 5762 5759 5756 5753 5749 5746 5742 5738 5734
5804 5805 5806 5806 5807 5807 5808 5808 5808 5808 5808 5808 5807 5806 5807 5805 5802 5800 5798 5796 5793 5791 5788 5785 5782 5780 5778 5775 5773 5771 5768 5766 5763 5761 5758 5755 5752 5748 5745 5741 5737 5733 5728 5723
5800 5801 5802 5802 5803 5803 5803 5804 5804 5804 5804 5803 5802 5801 5801 5799 5796 5793 5791 5789 5786 5783 5781 5778 5775 5773 5770 5768 5766 5764 5762 5759 5756 5753 5750 5747 5743 5740 5736 5731 5727 5722 5717 5711
5795 5797 5797 5798 5798 5799 5799 5799 5798 5798 5798 5798 5797 5797 5795 5792 5789 5786 5784 5781 5779 5776 5774 5771 5768 5766 5764 5762 5760 5757 5755 5752 5749 5745 5742 5738 5734 5730 5725 5720 5715 5709 5703 5697
5790 5792 5792 5792 5793 5793 5794 5794 5794 5792 5791 5791 5792 5791 5789 5786 5783 5780 5777 5774 5772 5769 5766 5764 5761 5759 5757 5755 5752 5750 5747 5744 5740 5736 5732 5728 5723 5718 5713 5707 5701 5694 5688 5681
5784 5786 5788 5788 5788 5788 5788 5789 5787 5786 5786 5785 5784 5788 5783 5779 5775 5772 5770 5767 5765 5762 5759 5756 5754 5752 5750 5747 5745 5742 5738 5734 5730 5726 5721 5716 5711 5705 5699 5692 5686 5678 5671 5664
5778 5780 5781 5782 5782 5782 5782 5782 5781 5781 5780 5778 5777 5781 5776 5771 5767 5764 5762 5760 5757 5754 5751 5749 5747 5745 5742 5739 5736 5732 5728 5724 5720 5715 5709 5704 5697 5691 5684 5677 5669 5661 5653 5644
5772 5774 5775 5776 5778 5776 5775 5775 5774 5773 5773 5771 5770 5773 5767 5763 5759 5757 5755 5752 5749 5746 5744 5742 5739 5736 5734 5730 5727 5722 5718 5713 5708 5702 5696 5690 5683 5676 5668 5660 5651 5642 5633 5624
5766 5767 5769 5770 5769 5768 5768 5769 5768 5766 5765 5763 5764 5764 5760 5755 5751 5749 5747 5744 5741 5738 5736 5733 5731 5728 5724 5720 5716 5712 5706 5701 5695 5689 5682 5675 5667 5658 5650 5641 5631 5622 5612 5602
5759 5760 5761 5761 5761 5760 5761 5762 5760 5758 5757 5755 5755 5754 5752 5746 5743 5740 5738 5735 5732 5730 5727 5725 5722 5718 5714 5710 5705 5700 5694 5688 5681 5674 5666 5658 5649 5640 5631 5621 5611 5600 5589 5578
5751 5753 5754 5754 5753 5752 5753 5754 5752 5750 5748 5746 5744 5744 5741 5738 5734 5731 5729 5726 5724 5721 5718 5715 5712 5708 5703 5698 5693 5687 5681 5674 5666 5658 5650 5641 5631 5621 5611 5600 5590 5578 5567 5554
5744 5745 5745 5745 5745 5743 5745 5747 5744 5742 5740 5738 5736 5734 5731 5729 5726 5723 5720 5718 5715 5712 5709 5705 5701 5697 5692 5686 5681 5674 5667 5659 5651 5642 5632 5622 5612 5602 5591 5579 5567 5555 5543 5531
5737 5736 5735 5735 5736 5735 5739 5737 5735 5733 5731 5729 5726 5724 5721 5719 5716 5714 5711 5708 5705 5702 5698 5694 5690 5685 5679 5673 5667 5659 5651 5643 5634 5624 5613 5602 5591 5581 5569 5557 5544 5532 5519 5507
5729 5728 5726 5725 5724 5724 5729 5727 5724 5722 5721 5720 5716 5714 5712 5709 5706 5704 5701 5698 5695 5691 5687 5683 5678 5672 5666 5659 5652 5644 5635 5626 5616 5606 5595 5583 5570 5559 5548 5535 5522 5509 5496 5485
5719 5719 5718 5716 5714 5714 5719 5717 5714 5713 5711 5710 5706 5704 5702 5699 5697 5695 5691 5687 5683 5679 5675 5670 5664 5658 5651 5644 5636 5628 5618 5609 5598 5587 5575 5562 5549 5537 5525 5512 5499 5487 5474 5464
5711 5709 5708 5706 5703 5704 5707 5705 5703 5703 5702 5699 5696 5694 5692 5689 5687 5684 5680 5676 5671 5667 5662 5657 5650 5644 5636 5628 5620 5611 5601 5590 5580 5568 5556 5543 5529 5516 5503 5491 5479 5466 5456 5447
5700 5699 5699 5697 5695 5697 5695 5694 5693 5691 5690 5687 5685 5683 5681 5678 5675 5672 5668 5664 5659 5654 5649 5643 5636 5629 5620 5611 5602 5593 5583 5573 5562 5550 5537 5524 5510 5496 5482 5471 5460 5450 5439 5431
5689 5690 5688 5688 5689 5686 5684 5682 5681 5680 5679 5677 5674 5672 5670 5667 5664 5660 5656 5651 5646 5641 5635 5628 5621 5613 5604 5593 5583 5574 5564 5553 5542 5531 5518 5505 5492 5479 5465 5453 5444 5435 5426 5417
5678 5678 5677 5677 5676 5674 5672 5671 5670 5669 5668 5665 5663 5661 5658 5655 5652 5648 5643 5638 5633 5626 5620 5612 5605 5597 5587 5577 5566 5555 5544 5533 5523 5511 5499 5486 5473 5463 5451 5440 5430 5421 5413 5405
5667 5667 5666 5665 5664 5663 5662 5660 5659 5658 5656 5654 5652 5649 5646 5643 5639 5635 5630 5624 5618 5611 5604 5596 5588 5579 5570 5559 5548 5536 5524 5514 5503 5492 5479 5468 5456 5445 5436 5428 5418 5409 5401 5391
5656 5655 5654 5654 5653 5652 5652 5650 5649 5647 5645 5642 5640 5637 5634 5630 5626 5621 5615 5609 5602 5595 5587 5579 5571 5561 5552 5541 5531 5518 5506 5494 5483 5472 5461 5450 5440 5431 5422 5414 5408 5400 5390 5382